Location: Allen Lane School
(37.8198°N, 89.7382°W)
Time: 20:38:58
(UTC+00:00)

Cosmos 1151 Rocket - Pass Details

Date: 08 December 2021
Orbit: 592 x 616 km, 82.5° (Epoch: 16 January)

Event Time Altitude Azimuth Distance (km) Brightness Sun altitude
Rises 23:19:30 0° 183° (S) 2,842 6.8 -7.9°
Reaches altitude 10° 23:21:42 10° 182° (S) 1,947 5.9 -8.3°
Maximum altitude 23:26:00 79° 96° (E) 626 3.0 -9.1°
Drops below altitude 10° 23:30:22 10° 10° (N) 1,976 5.3 -9.9°
Sets 23:32:37 0° 9° (N) 2,888 6.2 -10.3°
